Location: Oshawa
(43.9000°N, 78.8670°W)
Time: 08:49:20
(UTC-04:00)

Cosmos 1821 Rocket - Visible Passes

Search period start: 30 April 2017 00:00
Search period end: 10 May 2017 00:00
Orbit: 944 x 1006 km, 82.9° (Epoch: 28 April)

Date Brightness Start Highest point End Pass type
(mag) Time Alt. Az. Time Alt. Az. Time Alt. Az.
30 Apr 5.8 01:53:25 10° NNE 01:58:11 23° ENE 02:01:11 16° ESE visible
30 Apr 4.0 03:38:00 10° NNW 03:43:58 58° W 03:45:48 42° SW visible
01 May 5.0 02:18:06 10° N 02:23:49 39° ENE 02:26:03 30° ESE visible
01 May 4.7 04:03:43 10° NNW 04:09:03 32° W 04:10:40 28° WSW visible
02 May 6.4 01:01:08 10° NE 01:02:42 11° ENE 01:04:15 10° ENE visible
02 May 4.1 02:43:09 10° N 02:49:16 70° E 02:50:56 49° SE visible
02 May 5.4 04:29:59 10° NW 04:33:57 18° W 04:35:35 16° W visible
03 May 5.9 01:24:14 10° NNE 01:28:36 20° ENE 01:31:14 15° E visible
03 May 3.9 03:08:28 10° NNW 03:14:33 68° W 03:15:51 53° SSW visible
04 May 5.2 01:48:46 10° N 01:54:17 34° ENE 01:56:11 28° ESE visible
04 May 4.5 03:34:05 10° NNW 03:39:41 38° W 03:40:49 35° WSW visible
05 May 4.3 02:13:43 10° N 02:19:48 60° E 02:21:08 49° SE visible
05 May 5.2 04:00:10 10° NW 04:04:38 22° W 04:05:47 20° W visible
06 May 6.0 00:55:06 10° NNE 00:59:01 17° ENE 01:01:29 14° E visible
06 May 3.8 02:38:58 10° N 02:45:07 79° W 02:46:08 63° SSW visible
06 May 5.8 04:27:37 10° WNW 04:29:25 11° WNW 04:30:46 11° W visible
07 May 5.3 01:19:27 10° NNE 01:24:46 30° ENE 01:26:29 26° E visible
07 May 4.3 03:04:30 10° NNW 03:10:17 44° W 03:11:08 42° WSW visible
08 May 4.5 01:44:19 10° N 01:50:19 51° ENE 01:51:30 45° ESE visible
08 May 5.1 03:30:25 10° NNW 03:35:18 25° W 03:36:09 24° W visible
09 May 6.1 00:26:05 10° NNE 00:29:25 15° ENE 00:31:54 12° E visible
09 May 3.8 02:09:30 10° N 02:15:41 89° E 02:16:32 69° S visible
09 May 5.7 03:57:13 10° NW 04:00:08 14° WNW 04:01:11 13° W visible
